Regional Weather Roundup
Issued by NWS Cleveland, OH

Home | Current Version | Previous Version | Text Only | Print | Product List | Glossary On
Versions: 1 2 3 4 5 6 7 8 9 10 11 12 13 14 15 16 17 18 19 20 21 22 23 24 25 26 27 28 29 30 31 32 33 34 35 36 37 38 39 40 41 42 43 44 45 46 47 48 49 50
000
ASUS41 KCLE 261712
RWRCLE
OHIO REGIONAL WEATHER ROUNDUP
NATIONAL WEATHER SERVICE WILMINGTON, OH
100 PM EDT SUN MAR 26 2017

NOTE: "FAIR" INDICATES FEW OR NO CLOUDS BELOW 12,000 FEET WITH NO
SIGNIFICANT WEATHER AND/OR OBSTRUCTIONS TO VISIBILITY.

OHZ001>008-015>018-024>027-034-035-043-044-261800-
   NORTHWEST OHIO

CITY           SKY/WX    TMP DP  RH WIND       PRES   REMARKS
DEFIANCE       CLOUDY    45  44  97 E5        29.95F FOG
FINDLAY        FAIR      56  51  84 SE9       29.95F
TOLEDO EXPRESS CLOUDY    43  43 100 E6        29.96S FOG
TOLEDO EXEC    CLOUDY    46  45  96 E6        29.97F FOG
LIMA           PTSUNNY   63  54  72 S16G22    29.94F
$$

OHZ009>014-019>023-028>033-038-089-261800-
   NORTHEAST OHIO

CITY           SKY/WX    TMP DP  RH WIND       PRES   REMARKS
CLE-HOPKINS    CLOUDY    67  47  48 S14       30.00F
CLE-LAKEFRONT  PTSUNNY   68  48  48 S15       29.96F
CUY CO. ARPT   CLOUDY    70  52  52 S12G23    29.98F
LORAIN-ELYRIA  CLOUDY    63  49  60 W10       29.98S
ASHTABULA      FAIR      64  50  60 S14G22    30.02F
AKRON-CANTON   CLOUDY    68  48  48 S15       30.00F
WOOSTER        CLOUDY    63  49  60 S13       30.00F
MANSFIELD      LGT RAIN  58  56  93 S8        29.99F
YOUNGSTOWN     CLOUDY    65  49  56 SE15G24   30.02F
$$

OHZ042-051>053-060>062-070>072-077>081-261800-
  SOUTHWEST OHIO

CITY           SKY/WX    TMP DP  RH WIND       PRES   REMARKS
CINC-COVINGTON LGT RAIN  57  56  96 SE9       29.97F FOG
CINC-LUNKEN    CLOUDY    58  57  97 CALM      29.99F
HAMILTON       LGT RAIN  58  57  97 VRB7      29.98F
DAYTON         LGT RAIN  57  55  93 S15       29.98S
WRIGHT-PAT AFB RAIN      58  58 100 S15       29.98S FOG
DAYTON GENERAL LGT RAIN  57  55  93 S13       29.97F
WILMINGTON     RAIN      57  55  93 SW9       30.00S FOG
$$

OHZ036-037-039>041-045>050-054>059-063>069-073>076-082>088-261800-
  CENTRAL AND SOUTHEAST OHIO

CITY           SKY/WX    TMP DP  RH WIND       PRES   REMARKS
COLUMBUS       LGT RAIN  60  57  89 SE8       30.00F
OSU AIRPORT    CLOUDY    60  57  89 S9        29.99F
BOLTON FIELD   CLOUDY    59  57  94 S12       30.00F
RICKENBACK AFB CLOUDY    59  58  94 S14       29.99F
NEWARK         CLOUDY    60  53  77 S10       30.00F
MARION         LGT RAIN  59  55  87 S14       29.99F
LANCASTER      CLOUDY    61  56  83 S9        30.01F
ZANESVILLE     LGT RAIN  62  52  69 SW12      30.03S
NEW PHILLY     PTSUNNY   68  49  50 SW10G18   30.02F
$$




USA.gov is the U.S. government's official web portal to all federal, state and local government web resources and services.